Location: Olsztyn
(53.7767°N, 20.4765°E)
Time: 09:19:53
(UTC+02:00)

Vanguard 2 Rocket - Visible Passes

Search period start: 15 July 2024 00:00
Search period end: 25 July 2024 00:00
Orbit: 555 x 3303 km, 32.9° (Epoch: 14 July)

Date Brightness Start Highest point End Pass type
(mag) Time Alt. Az. Time Alt. Az. Time Alt. Az.
15 Jul 9.5 00:37:18 10° WSW 00:46:28 26° S 00:59:16 10° SE visible
15 Jul 10.0 02:51:53 10° WSW 03:00:09 17° SSW 03:09:59 10° S visible
15 Jul 9.3 23:35:16 10° SW 23:43:21 26° S 23:55:00 10° SE visible
16 Jul 9.8 01:48:13 10° WSW 01:56:48 20° SSW 02:07:46 10° SSE visible
16 Jul 9.2 22:33:40 10° SW 22:40:31 24° S 22:50:25 10° SE visible
17 Jul 9.6 00:45:25 10° WSW 00:53:33 22° SSW 01:04:33 10° SSE visible
17 Jul 10.1 03:02:59 10° SW 03:07:00 11° SSW 03:11:21 10° SSW visible
17 Jul 9.1 21:32:31 10° SSW 21:38:00 20° SSE 21:45:39 10° SE visible
17 Jul 9.4 23:43:12 10° SW 23:50:30 22° S 23:57:27 15° SSE visible
18 Jul 9.9 01:57:30 10° SW 02:12:20 - S 02:02:34 14° SSW visible
18 Jul 9.2 22:41:26 10° SW 22:47:41 21° S 22:55:11 12° SE visible
19 Jul 9.7 00:54:03 10° SW 01:00:31 17° SSW 01:00:31 17° SSW visible
19 Jul 9.1 21:40:05 10° SSW 21:45:10 19° S 21:52:06 10° SE visible
19 Jul 9.5 23:51:29 10° SW 23:57:40 18° SSW 23:59:35 17° S visible
20 Jul 9.3 22:49:29 10° SW 22:54:53 18° S 22:59:06 15° SSE visible
21 Jul 9.9 01:04:16 10° SW 01:04:32 10° SW 01:04:32 10° SW visible
21 Jul 9.1 21:47:57 10° SSW 21:52:22 16° S 21:58:11 10° SE visible
22 Jul 9.6 00:00:38 10° SW 00:04:19 13° SSW 00:04:19 13° SSW visible
22 Jul 9.4 22:58:09 10° SW 23:02:08 14° S 23:04:16 13° S visible
23 Jul 9.2 21:56:20 10° SSW 21:59:37 13° S 22:03:37 10° SSE visible
